Content
SEND FEEDBACK

Daily
Averages
Monthly
Summary
Philippines

BOOT, PHILIPPINES


Home > Asia > Philippines
Elevation: 36 feet     Latitude: 14 04N     Longitude: 121 03E

WEATHER
 
SELECT A DAY
Number of Records: 178,003;   Date Range: 7/1/96 - 11/21/14
 
SHARE

PRINT THIS DATA

[ ← Previous Day ]
WEATHER ALMANAC - FEBRUARY 16, 2014
[ Next Day → ]
[ °C ]   °F
Weather ElementAverageHighLow
Temperature79.7 °F86 °F (11:00 am)73 °F (5:00 am)
Dewpoint67.3 °F69.8 °F (12:00 pm)64.4 °F (7:00 am)
Humidity63.9 %78 % (5:00 am)45 % (2:00 pm)
Barometer29.97 in30.03 in (8:00 am)29.89 in (3:00 pm)
Wind Speed8.7 mph17.9 mph (8:00 am)
Weather ElementAverage
Visibility6.1 mi
Wind DirectionESE (98.4 °)

Weather ElementTotal
Precipitation---
Cooling Degree Days14.5 (Base 65)
Growing Degree Days29.5 (Base 50)
Averaged from 31 records on February 16, 2014
WEATHER CONDITIONS BREAKOUT
WIND DIRECTION BREAKOUT
WEATHER BY HOUR - FEBRUARY 16, 2014
[ °C ]   °F
Local TimeTemperatureDewpointHumidityBarometerVisibilityWind DirectionWind SpeedGust SpeedPrecipitationEventsConditions
1:00 AM75.2 °F66.2 °F73 %29.95 in6.2 miESE (120°)5.8 mphPartly Cloudy
2:00 AM76.0 °F66.0 °F63 %29.94 in6.0 miESE (120°)6.7 mphScattered Clouds
2:00 AM75.2 °F66.2 °F73 %29.92 in6.2 miESE (120°)6.9 mphPartly Cloudy
3:00 AM75.2 °F66.2 °F73 %29.92 in6.2 miESE (110°)8.1 mphPartly Cloudy
4:00 AM75.2 °F66.2 °F73 %29.92 in6.2 miEast (100°)4.6 mphScattered Clouds
5:00 AM73.0 °F66.0 °F73 %29.94 in6.0 miENE (70°)6.7 mphPartly Cloudy
5:00 AM73.4 °F66.2 °F78 %29.92 in6.2 miENE (70°)6.9 mphScattered Clouds
6:00 AM73.4 °F66.2 °F78 %29.95 in5.6 miENE (70°)5.8 mphScattered Clouds
7:00 AM75.2 °F64.4 °F69 %29.98 in6.2 miVariable2.3 mphScattered Clouds
8:00 AM79.0 °F66.0 °F55 %30.03 in6.0 miEast (100°)17.9 mphHaze
8:00 AM78.8 °F66.2 °F65 %30.01 in6.2 miEast (90°)4.6 mphPartly Cloudy
9:00 AM80.6 °F64.4 °F58 %30.01 in6.2 miEast (90°)5.8 mphScattered Clouds
10:00 AM82.4 °F64.4 °F54 %30.01 in6.2 miESE (120°)6.9 mphScattered Clouds
11:00 AM85.0 °F67.0 °F46 %30.03 in6.0 miESE (110°)8.9 mphHaze
11:00 AM86.0 °F66.2 °F51 %30.01 in6.2 miESE (110°)9.2 mphPartly Cloudy
12:00 PM86.0 °F69.8 °F58 %29.98 in6.2 miSE (140°)9.2 mphPartly Cloudy
1:00 PM84.2 °F69.8 °F62 %29.95 in6.2 miVariable11.5 mphPartly Cloudy
2:00 PM86.0 °F68.0 °F45 %29.93 in6.0 miSE (130°)4.5 mphHaze
2:00 PM86.0 °F68.0 °F55 %29.92 in6.2 miSE (130°)11.5 mphPartly Cloudy
3:00 PM86.0 °F69.8 °F58 %29.89 in6.2 miVariable12.7 mphPartly Cloudy
4:00 PM84.2 °F69.8 °F62 %29.92 in6.2 miSE (130°)13.8 mphScattered Clouds
5:00 PM82.0 °F68.0 °F54 %29.95 in6.0 miESE (110°)13.4 mphPartly Cloudy
5:00 PM82.4 °F68.0 °F62 %29.95 in6.2 miESE (110°)12.7 mphScattered Clouds
6:00 PM80.6 °F68.0 °F65 %29.95 in6.2 miESE (110°)9.2 mphScattered Clouds
7:00 PM80.6 °F68.0 °F65 %29.95 in6.2 miESE (110°)9.2 mphScattered Clouds
8:00 PM79.0 °F69.0 °F63 %29.99 in6.0 miESE (110°)8.9 mphPartly Cloudy
8:00 PM78.8 °F68.0 °F69 %29.98 in6.2 miESE (110°)8.1 mphScattered Clouds
9:00 PM78.8 °F68.0 °F69 %30.01 in6.2 miESE (110°)9.2 mphScattered Clouds
10:00 PM78.8 °F68.0 °F69 %30.01 in6.2 miESE (110°)10.4 mphPartly Cloudy
11:00 PM77.0 °F69.0 °F68 %30.03 in6.0 miESE (120°)11.2 mphScattered Clouds
11:00 PM77.0 °F68.0 °F74 %30.01 in6.2 miESE (120°)6.9 mphPartly Cloudy
Hourly data recorded from RPLL, located miles away from Boot, Philippines







STORIES FROM OUR PARTNERS